STARLINK-5221 (54091 NORAD) Tracking and Keplerian Element Data

This shows tracking and keplerian element data for the satellite.

Feedback or suggestion? Click here.




ElementValue
Catalog54091
NameSTARLINK-5221
Epoch Orbit549
Epoch Day325.33334491
Epoch Year2022
RAAN350.8854
Inclination53.2154
Eccentricity0.000423
Argument of Perigee6.4379
Mean Anonmoly344.9518
Mean Motion15.73168125
Decay Rate0.00030661
L11 54091U 22136AS 22325.33334491 .00030661 00000+0 22231-3 0 9995
L22 54091 53.2154 350.8854 0004230 6.4379 344.9518 15.73168125 5493



Live tracking and technical data element details for STARLINK-5221 (NORAD 54091). STARLINK-5221 can be tracked NOW for your location showing map with azimuth and elevation plus other details from your city location.







IsCatalogInMostPopularTable: catalog: 54091, numindb: 1
Update: records affected: 1



GetName: 54091 STARLINK-5221

Hit Count: updated at: Mon, 28 Nov 2022 21:31:21 GMT